www.pogodaiklimat.ru

Погода и климат >> Архив погоды >> Беларусь >> Воложин


ПОГОДА в Воложине

  • Прогноз погоды в Воложине
  • Монитор погоды в Воложине
  • Климат города

АРХИВ ПОГОДЫ в Воложине

Время (UTC), дата Ветер
(напр.,м/с)
 
Видим.   Явления Облачность Т
(С)
Тd
(С)
f
(%)
Тe
(С)
Тes
(С)
Комфортность P
(гПа)
Po
(гПа)
Тmin
(С)
Tmax
(С)
R
(мм)
R24
(мм)
S
(см)
15 14.11 СЗ 4
{10}
35 км {дождь} 10/10 420 м
[St]
+6.3 +4.9 91 +2 +2 1021.6 993.1
18 14.11 СЗ 3 35 км {дождь} 10/10 420 м
[St]
+6.0 +4.5 90 +3 +3 1023.2 994.6 +6.7 6
21 14.11 СЗ 3 35 км 10/10 270 м
[St]
+5.7 +4.6 93 +2 +2 1024.4 995.8
00 15.11 С 3 35 км 10/10 270 м
[St]
+5.8 +4.9 94 +2 +2 1026.0 997.3
03 15.11 С 4 35 км 6/6 800 м
[Sc]
+5.3 +4.2 93 +1 +1 1027.4 998.6 +5.3
06 15.11 СВ 4 35 км {дождь} 10/10 300 м
[St]
+4.2 +3.4 95 -0 -0 1029.5 1000.6 +4.2 0.1
09 15.11 СВ 5
{10}
30 км 10/10 240 м
[St]
+3.1 +1.7 91 -2 -2 1031.9 1002.8
12 15.11 СВ 4 30 км 8/8 660 м
[Sc]
+2.2 +0.4 88 -3 -3 1033.8 1004.5
15 15.11 СВ 4 30 км 10/10 360 м
[St]
+1.4 -0.6 87 -4 -4 1035.5 1006.1
18 15.11 СВ 3 23 км 10/10 270 м
[St]
-0.1 -1.7 89 -5 -5 1037.1 1007.5 +4.3
21 15.11 СВ 2 15 км 10/10 240 м
[St]
0.0 -1.5 90 -4 -4 1038.7 1009.0
00 16.11 СВ 2 7000 м дымка 10/10 240 м
[St]
-0.1 -0.8 95 -4 -4 1040.2 1010.5
03 16.11 СВ 3 3100 м дымка 10/10 210 м
[St]
-0.1 -0.3 99 -5 -5 1040.9 1011.2 -0.5
06 16.11 СВ 3 9000 м дымка 10/10 180 м
[St]
+0.3 -0.1 97 -5 -5 1042.4 1012.7 -0.5
09 16.11 В 3 9000 м дымка 10/10 180 м
[St]
+1.0 +0.2 94 -4 -4 1043.8 1014.1
12 16.11 В 3 13 км 8/0
[Ac trans Ci fib]
+1.2 -0.9 86 -3 -3 1044.0 1014.3
15 16.11 СВ 2 12 км 4/0
[Ac trans]
-0.7 -2.0 91 -5 -5 1044.5 1014.6
18 16.11 СВ 4 11 км ясно -1.4 -2.3 94 -7 -7 1044.9 1014.9 +1.7
21 16.11 СВ 2 13 км ясно -2.9 -4.0 92 -7 -7 1045.5 1015.3
00 17.11 СВ 2 20 км ясно -3.0 -5.4 83 -7 -7 1045.3 1015.1
03 17.11 СВ 2 19 км ясно -4.0 -5.9 87 -8 -8 1045.0 1014.7 -4.0
06 17.11 В 1 28 км ясно -3.9 -7.3 77 -6 -6 1044.2 1013.9 -5.6
09 17.11 штиль 0 13 км ясно +0.7 -3.5 73 -0 +2 1043.5 1013.8
12 17.11 ЮЗ 1 25 км 6/0
[Ci fib]
+2.5 -3.2 66 +1 +2 1041.4 1011.9
15 17.11 ЮЗ 1 23 км ясно +0.9 -3.9 70 -1 -1 1039.2 1009.6
18 17.11 З 1 35 км 6/0
[Ac trans]
-1.3 -4.3 80 -3 -3 1038.1 1008.3 +2.9
21 17.11 З 2 8000 м дымка 10/10 420 м
[St]
-1.5 -2.3 94 -6 -6 1036.2 1006.4
00 18.11 З 3 3100 м дымка 10/10 210 м
[St]
-1.5 -1.8 98 -7 -7 1032.5 1002.9
03 18.11 З 3 400 м туман ?/? -0.6 -0.8 99 -6 -6 1029.0 999.6 -2.7
06 18.11 З 3 400 м слабый снег {туман} туман ?/? -0.1 -0.2 99 -5 -5 1025.9 996.6 -2.7 0.9 1
09 18.11 З 1 200 м туман {снег} ?/? +0.3 +0.2 99 -2 -2 1024.6 995.4
12 18.11 С 2 9000 м в посл. час туман {снег} 10/10 240 м
[St]
+2.6 +2.5 99 -1 -1 1023.8 994.9
15 18.11 СВ 2 19 км 10/10 420 м
[St]
+2.8 +2.4 97 -1 -1 1024.1 995.2
18 18.11 СВ 4 25 км 10/10 210 м
[St]
+2.4 +1.7 95 -3 -3 1024.7 995.7 +2.9 0.3
21 18.11 СВ 3 35 км 10/10 420 м
[St]
+1.9 +1.3 96 -3 -3 1026.4 997.3
00 19.11 СВ 4 14 км 10/10 210 м
[St]
+1.9 +1.4 96 -3 -3 1027.4 998.3
03 19.11 СВ 4 20 км 10/10 210 м
[St]
+1.8 +1.3 96 -3 -3 1028.1 998.9 +1.8
06 19.11 СВ 5 35 км 10/10 210 м
[St]
+1.7 +1.0 95 -4 -4 1029.4 1000.2 +1.7
09 19.11 СВ 5 27 км 10/10 210 м
[St]
+2.0 +1.0 93 -4 -4 1030.8 1001.6
12 19.11 СВ 5
{10}
35 км 10/10 330 м
[St]
+2.2 +0.7 90 -3 -3 1031.0 1001.8
15 19.11 СВ 5 35 км 10/10 450 м
[St]
+1.8 +0.5 91 -4 -4 1031.3 1002.1
18 19.11 СВ 4 35 км 9/9 600 м
[Sc]
+1.7 +0.3 90 -3 -3 1031.8 1002.5 +2.4
21 19.11 СВ 4 30 км 9/9 1260 м
[Sc]
+1.3 +0.3 93 -4 -4 1032.1 1002.8
00 20.11 СВ 4 26 км 9/9 1170 м
[Sc]
+0.9 +0.2 95 -5 -5 1032.2 1002.8
03 20.11 СВ 4 30 км {снег, дождь} 10/10 210 м
[St]
+0.5 -0.0 96 -5 -5 1031.7 1002.3 +0.3
06 20.11 СВ 4 35 км {снег, дождь} 10/10 210 м
[St]
-0.2 -1.2 93 -6 -6 1032.0 1002.5 -0.2 0.4
09 20.11 СВ 3 35 км 10/10 270 м
[St]
-1.1 -2.8 88 -6 -6 1032.1 1002.5
12 20.11 С 1 10 км 10 баллов -1.1 -3.1 86 -3 -3 1031.0 1011.1
15 20.11 С 2 10 км 10 баллов -1.7 -3.6 87 -6 -6 1031.0 1011.1
18 20.11 СВ 1 10 км 10 баллов -1.8 -3.1 91 -4 -4 1031.0 1011.1 -0.2
21 20.11 СВ 1 10 км 10 баллов -2.0 -3.6 89 -4 -4 1031.0 1011.0
00 21.11 СВ 2 10 км 10 баллов -2.1 -3.5 90 -6 -6 1031.0 1011.0
03 21.11 С 1 10 км 10 баллов -2.7 -4.0 91 -5 -5 1031.0 1011.0 -2.7
06 21.11 С 2 10 км 10 баллов -3.1 -4.8 88 -7 -7 1031.0 1011.0 -3.2
09 21.11 СВ 2 10 км 10 баллов -2.5 -5.0 83 -6 -6 1031.0 1011.0
12 21.11 С 2 10 км 10 баллов -2.7 -5.2 83 -7 -7 1031.0 1011.0

 

Местоположение метеостанции Воложин (Минская область, Беларусь): широта 54.09 долгота 26.52 высота над уровнем моря 155 м.

В архиве по умолчанию представлена погода в Воложине за последнюю неделю. Архивные данные за месяц целиком и за предыдущие месяцы, начиная с января 2011 года, Вы можете получить, выбрав интересующий диапазон дат из раскрывающегося списка и нажав кнопку "Ввод!".


*Определитесь, кто Вы:
робот инопланетянин человек

Внимание! Время в таблицах - всемирное. Для получения местного времени необходимо прибавить поправку, которая в Воложине равна 3 ч.

Смотрите также архив погоды в соседних городах и на ближайших метеорологических станциях:

Погода в Ошмянах (Гродненская область, Беларусь) (54 км)
Погода в Вилейке (Минская область, Беларусь) (56 км)
Погода в Столбцах (Минская область, Беларусь) (69 км)
Погода в Новогрудке (Гродненская область, Беларусь) (70 км)
Погода в Минске (город Минск, Беларусь) (75 км)
Погода в Лиде (Гродненская область, Беларусь) (81 км)
Погода в Нарочи (Минская область, Беларусь) (95 км)
Погода в Vilnius (Литва) (100 км)
Погода в Лынтупах (Витебская область, Беларусь) (108 км)
Погода в Барановичах (Брестская область, Беларусь) (113 км)

Пояснения к столбцам:

Ветер - указаны скорость ветра в м/с - средняя за 10 мин, порывы в срок и между сроками (в фигурных скобках) и направление, откуда дует ветер: С - северный, СВ - северо-восточный, В - восточный, ЮВ - юго-восточный, Ю - южный, ЮЗ - юго-западный, З - западный, СЗ - северо-западный.
Видимость - горизонтальная дальность видимости в метрах или километрах. При видимости от 1 до 10 км при отсутствии осадков обычно наблюдается дымка, при ухудшении видимости до 1 км и менее - туман. В сухую погоду видимость может ухудшаться дымом, пылью или мглою.
Явления - указаны атмосферные явления, наблюдавшиеся в срок или в последний час перед сроком; фигурными скобками обозначены явления, наблюдавшиеся между сроками (за 1-3 часа до срока); квадратными скобками обозначены град или гололедные отложения с указанием их диаметра в мм.
Облачность - указаны через наклонную черту общая и нижняя облачность в баллах и высота нижней границы облаков в метрах; квадратными скобками обозначены формы облаков: Ci - перистые, Cs - перисто-слоистые, Cc - перисто-кучевые, Ac - высококучевые, As - высокослоистые, Sc - слоисто-кучевые, Ns - слоисто-дождевые, Cu - кучевые, Cb - кучево-дождевые. Подробнее классификацию облаков см. в Атласе облаков (PDF).
T - Температура воздуха - температура, измеренная на высоте 2 м над землей.
Td - Температура точки росы - температура, при понижении до которой содержащийся в воздухе водяной пар достигнет насыщения.
f - Относительная влажность воздуха - влажноcть воздуха, измеренная на высоте 2 м над землей.
Te - Эффективная температура - температура, которую ощущает одетый по сезону человек в тени. Характеристика душности погоды. При расчете учитывается влияние влажности воздуха и скорости ветра на теплоощущения человека.
Tes - Эффективная температура на солнце - температура, которую ощущает человек, с поправкой на солнечный нагрев. Характеристика знойности погоды. Зависит от высоты солнца над горизонтом, облачности и скорости ветра. Ночью, в пасмурную погоду, а также при ветре 12 м/с и более поправка равна нулю.
P - Атмосферное давление - приведенное к уровню моря атмосферное давление.
Po - Атмосферное давление - измеренное на уровне метеостанции атмосферное давление.
Tmin - Минимальная температура - минимум температуры воздуха на высоте 2 м над землей.
Tmax - Максимальная температура - максимум температуры воздуха на высоте 2 м над землей.
R - Количество осадков - Количество выпавших осадков за период времени, мм. При наведении курсора мыши на число - период времени, за который выпало указанное количество осадков.
R24 - Количество осадков - Количество выпавших осадков за 24 часа, мм.
S - Снежный покров - Высота снежного покрова, см. При наведении курсора мыши на число - состояние снежного покрова и степень покрытия местности в баллах.